Location: Moscow
(55.7500°N, 37.5830°E)
Time: 06:07:42
(UTC+03:00)

Vanguard 1 Rocket - Pass Details

Date: 05 December 2021
Orbit: 651 x 4225 km, 34.3° (Epoch: 26 January)

Event Time Altitude Azimuth Distance (km) Brightness Sun altitude
Exits shadow 03:26:11 28° 169° (S) 3,810 10.3 -42.3°
Maximum altitude 03:28:16 28° 157° (SSE) 3,976 10.5 -42.0°
Drops below altitude 10° 03:43:24 10° 108° (ESE) 6,688 12.2 -40.1°
Sets 03:50:34 0° 100° (E) 8,137 13.0 -39.1°
